Time,TemperatureF,DewpointF,PressureIn,WindDirection,WindDirectionDegrees,WindSpeedMPH,WindSpeedGustMPH,Humidity,HourlyPrecipIn,Conditions,Clouds,dailyrainin,SoftwareType,DateUTC
2013-03-18 00:00:00,38.2,36.6,30.16,SW,221,0.0,1.0,94,0.00,,---,0.00,VWS V14.01,2013-03-18 07:00:00,
2013-03-18 00:05:00,38.0,36.4,30.15,SW,221,0.0,0.0,94,0.00,,---,0.00,VWS V14.01,2013-03-18 07:05:00,
2013-03-18 00:10:00,37.8,36.2,30.16,SW,222,0.0,0.0,94,0.00,,---,0.00,VWS V14.01,2013-03-18 07:10:00,
2013-03-18 00:15:00,37.7,36.1,30.16,SW,222,0.0,1.0,94,0.00,,---,0.00,VWS V14.01,2013-03-18 07:15:00,
2013-03-18 00:20:00,37.7,36.1,30.15,SW,221,0.0,1.0,94,0.00,,---,0.00,VWS V14.01,2013-03-18 07:20:00,
2013-03-18 00:25:00,37.7,36.4,30.15,SW,221,0.0,1.0,95,0.00,,---,0.00,VWS V14.01,2013-03-18 07:25:00,
2013-03-18 00:30:00,37.7,36.4,30.15,SW,222,0.0,1.0,95,0.00,,---,0.00,VWS V14.01,2013-03-18 07:30:00,
2013-03-18 00:35:00,37.7,36.4,30.15,SW,222,0.0,1.0,95,0.00,,---,0.00,VWS V14.01,2013-03-18 07:35:00,
2013-03-18 00:40:00,37.7,36.4,30.14,SSW,198,0.0,1.0,95,0.00,,---,0.00,VWS V14.01,2013-03-18 07:40:00,
2013-03-18 00:45:00,37.6,36.3,30.14,ESE,104,0.0,1.0,95,0.00,,---,0.00,VWS V14.01,2013-03-18 07:45:00,
2013-03-18 00:50:00,37.6,36.3,30.14,ESE,104,0.0,1.0,95,0.00,,---,0.00,VWS V14.01,2013-03-18 07:50:00,
2013-03-18 00:55:00,37.5,36.2,30.14,ESE,105,0.0,1.0,95,0.00,,---,0.00,VWS V14.01,2013-03-18 07:55:00,
2013-03-18 01:00:00,37.4,36.1,30.13,ESE,104,0.0,1.0,95,0.00,,---,0.00,VWS V14.01,2013-03-18 08:00:00,
2013-03-18 01:05:00,37.3,36.0,30.13,ESE,104,0.0,1.0,95,0.00,,---,0.00,VWS V14.01,2013-03-18 08:05:00,
2013-03-18 01:10:00,37.4,36.1,30.13,ESE,104,0.0,1.0,95,0.00,,---,0.00,VWS V14.01,2013-03-18 08:10:00,
2013-03-18 01:15:00,37.4,36.1,30.13,ESE,104,0.0,1.0,95,0.00,,---,0.00,VWS V14.01,2013-03-18 08:15:00,
2013-03-18 01:20:00,37.5,36.2,30.12,West,276,0.0,1.0,95,0.00,,---,0.00,VWS V14.01,2013-03-18 08:20:00,
2013-03-18 01:25:00,37.5,36.2,30.12,South,186,0.0,2.0,95,0.00,,---,0.00,VWS V14.01,2013-03-18 08:25:00,
2013-03-18 01:30:00,37.5,36.2,30.12,NNE,16,0.0,2.0,95,0.00,,---,0.00,VWS V14.01,2013-03-18 08:30:00,
2013-03-18 01:35:00,37.6,36.3,30.12,SSE,148,0.0,2.0,95,0.00,,---,0.00,VWS V14.01,2013-03-18 08:35:00,
2013-03-18 01:40:00,37.6,36.3,30.12,ENE,72,0.0,2.0,95,0.00,,---,0.00,VWS V14.01,2013-03-18 08:40:00,
2013-03-18 01:45:00,37.6,36.3,30.12,NNE,18,0.0,2.0,95,0.00,,---,0.00,VWS V14.01,2013-03-18 08:45:00,
2013-03-18 01:50:00,37.6,36.3,30.12,ESE,121,0.0,2.0,95,0.00,,---,0.00,VWS V14.01,2013-03-18 08:50:00,
2013-03-18 01:55:00,37.6,36.0,30.12,ENE,72,0.0,2.0,94,0.00,,---,0.00,VWS V14.01,2013-03-18 08:55:00,
2013-03-18 02:00:00,37.5,35.9,30.12,ENE,72,0.0,2.0,94,0.00,,---,0.00,VWS V14.01,2013-03-18 09:00:00,
2013-03-18 02:05:00,37.5,35.9,30.12,SE,131,0.0,1.0,94,0.00,,---,0.00,VWS V14.01,2013-03-18 09:05:00,
2013-03-18 02:10:00,37.5,35.9,30.12,NE,39,0.0,2.0,94,0.00,,---,0.00,VWS V14.01,2013-03-18 09:10:00,
2013-03-18 02:15:00,37.6,36.0,30.11,SW,214,0.0,2.0,94,0.00,,---,0.00,VWS V14.01,2013-03-18 09:15:00,
2013-03-18 02:20:00,37.6,36.0,30.11,SW,221,0.0,3.0,94,0.00,,---,0.00,VWS V14.01,2013-03-18 09:20:00,
2013-03-18 02:25:00,37.8,36.2,30.11,SW,222,0.0,3.0,94,0.00,,---,0.00,VWS V14.01,2013-03-18 09:25:00,
2013-03-18 02:30:00,37.9,36.3,30.11,East,98,0.0,3.0,94,0.00,,---,0.00,VWS V14.01,2013-03-18 09:30:00,
2013-03-18 02:35:00,37.9,36.3,30.11,SSE,150,0.0,3.0,94,0.00,,---,0.00,VWS V14.01,2013-03-18 09:35:00,
2013-03-18 02:40:00,38.0,36.4,30.11,SE,129,0.0,3.0,94,0.00,,---,0.00,VWS V14.01,2013-03-18 09:40:00,
2013-03-18 02:45:00,38.1,36.5,30.11,NE,49,1.0,3.0,94,0.00,,---,0.00,VWS V14.01,2013-03-18 09:45:00,
2013-03-18 02:50:00,38.2,36.4,30.11,NE,49,1.0,3.0,93,0.00,,---,0.00,VWS V14.01,2013-03-18 09:50:00,
2013-03-18 02:55:00,38.3,36.5,30.10,NE,53,0.0,3.0,93,0.00,,---,0.00,VWS V14.01,2013-03-18 09:55:00,
2013-03-18 03:00:00,38.4,36.6,30.10,ENE,77,0.0,3.0,93,0.00,,---,0.00,VWS V14.01,2013-03-18 10:00:00,
2013-03-18 03:05:00,38.4,36.6,30.10,East,98,0.0,3.0,93,0.00,,---,0.00,VWS V14.01,2013-03-18 10:05:00,
2013-03-18 03:10:00,38.5,36.4,30.10,NNE,15,0.0,4.0,92,0.00,,---,0.00,VWS V14.01,2013-03-18 10:10:00,
2013-03-18 03:15:00,38.5,36.4,30.09,NNE,14,0.0,4.0,92,0.00,,---,0.00,VWS V14.01,2013-03-18 10:15:00,
2013-03-18 03:20:00,38.5,36.4,30.09,SW,214,0.0,4.0,92,0.00,,---,0.00,VWS V14.01,2013-03-18 10:20:00,
2013-03-18 03:25:00,38.5,36.4,30.09,NNW,337,0.0,4.0,92,0.00,,---,0.00,VWS V14.01,2013-03-18 10:25:00,
2013-03-18 03:30:00,38.6,36.5,30.09,NE,37,0.0,4.0,92,0.00,,---,0.00,VWS V14.01,2013-03-18 10:30:00,
2013-03-18 03:35:00,38.6,36.5,30.09,NNE,31,0.0,4.0,92,0.00,,---,0.00,VWS V14.01,2013-03-18 10:35:00,
2013-03-18 03:40:00,38.6,36.5,30.09,ENE,60,0.0,4.0,92,0.00,,---,0.00,VWS V14.01,2013-03-18 10:40:00,
2013-03-18 03:45:00,38.7,36.6,30.08,South,188,0.0,4.0,92,0.00,,---,0.00,VWS V14.01,2013-03-18 10:45:00,
2013-03-18 03:50:00,38.7,36.6,30.08,SSW,196,1.0,4.0,92,0.00,,---,0.00,VWS V14.01,2013-03-18 10:50:00,
2013-03-18 03:55:00,38.7,36.6,30.08,SE,130,0.0,4.0,92,0.00,,---,0.00,VWS V14.01,2013-03-18 10:55:00,
2013-03-18 04:00:00,38.8,36.7,30.09,South,190,0.0,4.0,92,0.00,,---,0.00,VWS V14.01,2013-03-18 11:00:00,
2013-03-18 04:05:00,38.8,36.4,30.09,SW,233,0.0,1.0,91,0.00,,---,0.00,VWS V14.01,2013-03-18 11:05:00,
2013-03-18 04:10:00,38.9,36.8,30.08,South,176,0.0,2.0,92,0.00,,---,0.00,VWS V14.01,2013-03-18 11:10:00,
2013-03-18 04:15:00,39.0,36.6,30.07,NE,56,1.0,2.0,91,0.00,,---,0.00,VWS V14.01,2013-03-18 11:15:00,
2013-03-18 04:20:00,39.0,36.6,30.07,ENE,70,0.0,2.0,91,0.00,,---,0.00,VWS V14.01,2013-03-18 11:20:00,
2013-03-18 04:25:00,39.0,36.6,30.08,ENE,71,0.0,2.0,91,0.00,,---,0.00,VWS V14.01,2013-03-18 11:25:00,
2013-03-18 04:30:00,39.1,36.7,30.07,ENE,74,0.0,2.0,91,0.00,,---,0.00,VWS V14.01,2013-03-18 11:30:00,
2013-03-18 04:35:00,39.1,36.7,30.07,WNW,302,0.0,2.0,91,0.00,,---,0.00,VWS V14.01,2013-03-18 11:35:00,
2013-03-18 04:40:00,39.2,36.8,30.07,WSW,243,0.0,2.0,91,0.00,,---,0.00,VWS V14.01,2013-03-18 11:40:00,
2013-03-18 04:45:00,39.2,36.8,30.08,WNW,283,0.0,2.0,91,0.00,,---,0.00,VWS V14.01,2013-03-18 11:45:00,
2013-03-18 04:50:00,39.3,36.9,30.08,ENE,60,0.0,2.0,91,0.00,,---,0.00,VWS V14.01,2013-03-18 11:50:00,
2013-03-18 04:55:00,39.4,37.0,30.09,NE,51,0.0,2.0,91,0.00,,---,0.00,VWS V14.01,2013-03-18 11:55:00,
2013-03-18 05:00:00,39.5,36.8,30.10,WSW,238,0.0,2.0,90,0.00,,---,0.00,VWS V14.01,2013-03-18 12:00:00,
2013-03-18 05:05:00,39.6,36.9,30.11,WSW,239,0.0,2.0,90,0.00,,---,0.00,VWS V14.01,2013-03-18 12:05:00,
2013-03-18 05:10:00,39.7,37.0,30.11,WSW,239,0.0,2.0,90,0.00,,---,0.00,VWS V14.01,2013-03-18 12:10:00,
2013-03-18 05:15:00,39.7,37.0,30.11,SW,226,0.0,2.0,90,0.01,,---,0.01,VWS V14.01,2013-03-18 12:15:00,
2013-03-18 05:20:00,39.6,37.2,30.10,East,80,0.0,2.0,91,0.01,,---,0.01,VWS V14.01,2013-03-18 12:20:00,
2013-03-18 05:25:00,39.4,37.3,30.11,SSW,192,0.0,2.0,92,0.02,,---,0.02,VWS V14.01,2013-03-18 12:25:00,
2013-03-18 05:30:00,39.2,37.1,30.11,SW,221,0.0,2.0,92,0.03,,---,0.03,VWS V14.01,2013-03-18 12:30:00,
2013-03-18 05:35:00,39.0,36.9,30.10,SW,221,0.0,2.0,92,0.03,,---,0.03,VWS V14.01,2013-03-18 12:35:00,
2013-03-18 05:40:00,38.8,37.0,30.11,SW,221,0.0,2.0,93,0.04,,---,0.04,VWS V14.01,2013-03-18 12:40:00,
2013-03-18 05:45:00,38.7,36.8,30.11,SW,221,0.0,2.0,93,0.05,,---,0.05,VWS V14.01,2013-03-18 12:45:00,
2013-03-18 05:50:00,38.6,36.8,30.11,SW,221,0.0,2.0,93,0.06,,---,0.06,VWS V14.01,2013-03-18 12:50:00,
2013-03-18 05:55:00,38.5,36.9,30.11,SW,221,0.0,2.0,94,0.06,,---,0.06,VWS V14.01,2013-03-18 12:55:00,
2013-03-18 06:00:00,38.4,36.8,30.11,SW,221,0.0,2.0,94,0.06,,---,0.06,VWS V14.01,2013-03-18 13:00:00,
2013-03-18 06:05:00,38.3,36.7,30.11,SW,221,0.0,0.0,94,0.01,,---,0.07,VWS V14.01,2013-03-18 13:05:00,
2013-03-18 06:10:00,38.3,36.7,30.11,SW,221,0.0,0.0,94,0.01,,---,0.07,VWS V14.01,2013-03-18 13:10:00,
2013-03-18 06:15:00,38.3,36.7,30.11,SW,221,0.0,0.0,94,0.01,,---,0.07,VWS V14.01,2013-03-18 13:15:00,
2013-03-18 06:20:00,38.3,37.0,30.11,SW,221,0.0,0.0,95,0.02,,---,0.08,VWS V14.01,2013-03-18 13:20:00,
2013-03-18 06:25:00,38.3,37.0,30.11,SW,221,0.0,0.0,95,0.02,,---,0.08,VWS V14.01,2013-03-18 13:25:00,
2013-03-18 06:30:00,38.2,36.9,30.10,SW,221,0.0,0.0,95,0.02,,---,0.08,VWS V14.01,2013-03-18 13:30:00,
2013-03-18 06:35:00,38.1,36.8,30.11,SW,221,0.0,0.0,95,0.02,,---,0.08,VWS V14.01,2013-03-18 13:35:00,
2013-03-18 06:40:00,38.1,36.8,30.10,SW,221,0.0,0.0,95,0.02,,---,0.08,VWS V14.01,2013-03-18 13:40:00,
2013-03-18 06:45:00,37.9,36.6,30.10,SW,221,0.0,0.0,95,0.02,,---,0.08,VWS V14.01,2013-03-18 13:45:00,
2013-03-18 06:50:00,37.8,36.5,30.10,NW,310,0.0,1.0,95,0.02,,---,0.08,VWS V14.01,2013-03-18 13:50:00,
2013-03-18 06:55:00,37.7,36.4,30.10,NW,310,0.0,1.0,95,0.02,,---,0.08,VWS V14.01,2013-03-18 13:55:00,
2013-03-18 07:00:00,37.5,36.2,30.11,NW,310,0.0,1.0,95,0.02,,---,0.08,VWS V14.01,2013-03-18 14:00:00,
2013-03-18 07:05:00,37.4,36.1,30.11,NW,311,0.0,1.0,95,0.02,,---,0.08,VWS V14.01,2013-03-18 14:05:00,
2013-03-18 07:10:00,37.3,36.3,30.11,NW,311,0.0,1.0,96,0.02,,---,0.08,VWS V14.01,2013-03-18 14:10:00,
2013-03-18 07:15:00,37.3,36.3,30.11,NW,309,0.0,1.0,96,0.02,,---,0.08,VWS V14.01,2013-03-18 14:15:00,
2013-03-18 07:20:00,37.3,36.3,30.11,NW,310,0.0,1.0,96,0.02,,---,0.08,VWS V14.01,2013-03-18 14:20:00,
2013-03-18 07:25:00,37.3,36.3,30.11,NW,310,0.0,1.0,96,0.02,,---,0.08,VWS V14.01,2013-03-18 14:25:00,
2013-03-18 07:30:00,37.5,36.5,30.11,NW,309,0.0,1.0,96,0.02,,---,0.08,VWS V14.01,2013-03-18 14:30:00,
2013-03-18 07:35:00,37.6,36.6,30.11,NW,311,0.0,1.0,96,0.02,,---,0.08,VWS V14.01,2013-03-18 14:35:00,
2013-03-18 07:40:00,37.7,36.7,30.11,NW,310,0.0,1.0,96,0.02,,---,0.08,VWS V14.01,2013-03-18 14:40:00,
2013-03-18 07:45:00,37.7,36.7,30.12,NW,310,0.0,1.0,96,0.02,,---,0.08,VWS V14.01,2013-03-18 14:45:00,
2013-03-18 07:50:00,37.7,36.9,30.12,NW,309,0.0,1.0,97,0.02,,---,0.08,VWS V14.01,2013-03-18 14:50:00,
2013-03-18 07:55:00,37.9,37.1,30.12,North,360,0.0,1.0,97,0.02,,---,0.08,VWS V14.01,2013-03-18 14:55:00,
2013-03-18 08:00:00,38.2,37.4,30.12,North,359,0.0,1.0,97,0.02,,---,0.08,VWS V14.01,2013-03-18 15:00:00,
2013-03-18 08:05:00,38.5,37.7,30.12,NNE,13,0.0,1.0,97,0.00,,---,0.08,VWS V14.01,2013-03-18 15:05:00,
2013-03-18 08:10:00,38.8,38.0,30.12,NNE,14,0.0,1.0,97,0.00,,---,0.08,VWS V14.01,2013-03-18 15:10:00,
2013-03-18 08:15:00,39.1,38.3,30.12,NNE,13,0.0,1.0,97,0.00,,---,0.08,VWS V14.01,2013-03-18 15:15:00,
2013-03-18 08:20:00,39.3,38.5,30.12,NNW,330,0.0,1.0,97,0.00,,---,0.08,VWS V14.01,2013-03-18 15:20:00,
2013-03-18 08:25:00,39.4,38.6,30.12,West,272,0.0,1.0,97,0.00,,---,0.08,VWS V14.01,2013-03-18 15:25:00,
2013-03-18 08:30:00,39.5,38.7,30.12,West,272,0.0,1.0,97,0.00,,---,0.08,VWS V14.01,2013-03-18 15:30:00,
2013-03-18 08:35:00,39.5,38.7,30.12,SSW,208,0.0,2.0,97,0.00,,---,0.08,VWS V14.01,2013-03-18 15:35:00,
2013-03-18 08:40:00,39.5,38.7,30.13,SE,129,0.0,2.0,97,0.00,,---,0.08,VWS V14.01,2013-03-18 15:40:00,
2013-03-18 08:45:00,40.1,39.3,30.13,SE,130,0.0,2.0,97,0.00,,---,0.08,VWS V14.01,2013-03-18 15:45:00,
2013-03-18 08:50:00,40.6,39.8,30.13,SE,129,0.0,2.0,97,0.00,,---,0.08,VWS V14.01,2013-03-18 15:50:00,
2013-03-18 08:55:00,40.9,39.8,30.13,ESE,115,0.0,3.0,96,0.00,,---,0.08,VWS V14.01,2013-03-18 15:55:00,
2013-03-18 09:00:00,41.1,39.8,30.13,East,101,0.0,3.0,95,0.00,,---,0.08,VWS V14.01,2013-03-18 16:00:00,
2013-03-18 09:05:00,41.1,39.5,30.14,ESE,102,0.0,3.0,94,0.00,,---,0.08,VWS V14.01,2013-03-18 16:05:00,
2013-03-18 09:10:00,41.1,39.5,30.14,SE,146,0.0,3.0,94,0.00,,---,0.08,VWS V14.01,2013-03-18 16:10:00,
2013-03-18 09:15:00,41.4,39.2,30.14,NE,51,0.0,3.0,92,0.00,,---,0.08,VWS V14.01,2013-03-18 16:15:00,
2013-03-18 09:20:00,42.1,38.5,30.14,West,267,0.0,4.0,87,0.00,,---,0.08,VWS V14.01,2013-03-18 16:20:00,
2013-03-18 09:25:00,42.7,38.5,30.14,West,281,2.0,4.0,85,0.00,,---,0.08,VWS V14.01,2013-03-18 16:25:00,
2013-03-18 09:30:00,43.3,39.1,30.14,WNW,287,3.0,4.0,85,0.00,,---,0.08,VWS V14.01,2013-03-18 16:30:00,
2013-03-18 09:35:00,43.9,38.8,30.15,West,271,0.0,4.0,82,0.00,,---,0.08,VWS V14.01,2013-03-18 16:35:00,
2013-03-18 09:40:00,44.4,38.6,30.15,NNW,333,2.0,4.0,80,0.00,,---,0.08,VWS V14.01,2013-03-18 16:40:00,
2013-03-18 09:45:00,44.8,37.0,30.15,West,274,3.0,7.0,74,0.00,,---,0.08,VWS V14.01,2013-03-18 16:45:00,
2013-03-18 09:50:00,45.0,38.6,30.15,NW,317,3.0,7.0,78,0.00,,---,0.08,VWS V14.01,2013-03-18 16:50:00,
2013-03-18 09:55:00,45.2,38.4,30.15,NNW,340,1.0,7.0,77,0.00,,---,0.08,VWS V14.01,2013-03-18 16:55:00,
2013-03-18 10:00:00,45.5,38.0,30.15,NW,312,2.0,7.0,75,0.00,,---,0.08,VWS V14.01,2013-03-18 17:00:00,
2013-03-18 10:05:00,45.4,36.9,30.15,West,276,1.0,6.0,72,0.00,,---,0.08,VWS V14.01,2013-03-18 17:05:00,
2013-03-18 10:10:00,45.6,38.2,30.16,NW,319,4.0,6.0,75,0.00,,---,0.08,VWS V14.01,2013-03-18 17:10:00,
2013-03-18 10:15:00,46.0,38.2,30.16,WNW,289,2.0,6.0,74,0.00,,---,0.08,VWS V14.01,2013-03-18 17:15:00,
2013-03-18 10:20:00,46.0,37.5,30.16,NW,311,2.0,6.0,72,0.00,,---,0.08,VWS V14.01,2013-03-18 17:20:00,
2013-03-18 10:25:00,46.1,37.9,30.16,West,276,1.0,6.0,73,0.00,,---,0.08,VWS V14.01,2013-03-18 17:25:00,
2013-03-18 10:30:00,46.2,38.7,30.16,WNW,301,0.0,6.0,75,0.00,,---,0.08,VWS V14.01,2013-03-18 17:30:00,
2013-03-18 10:35:00,46.3,37.1,30.16,West,271,3.0,8.0,70,0.00,,---,0.08,VWS V14.01,2013-03-18 17:35:00,
2013-03-18 10:40:00,46.1,37.2,30.16,NNE,23,1.0,8.0,71,0.00,,---,0.08,VWS V14.01,2013-03-18 17:40:00,
2013-03-18 10:45:00,46.5,37.6,30.16,West,277,2.0,8.0,71,0.00,,---,0.08,VWS V14.01,2013-03-18 17:45:00,
2013-03-18 10:50:00,46.9,39.4,30.16,WNW,297,3.0,8.0,75,0.00,,---,0.08,VWS V14.01,2013-03-18 17:50:00,
2013-03-18 10:55:00,47.1,38.5,30.16,WNW,290,1.0,8.0,72,0.00,,---,0.08,VWS V14.01,2013-03-18 17:55:00,
2013-03-18 11:00:00,47.2,37.6,30.16,NW,314,4.0,8.0,69,0.00,,---,0.08,VWS V14.01,2013-03-18 18:00:00,
2013-03-18 11:05:00,47.3,38.4,30.16,WNW,302,1.0,8.0,71,0.00,,---,0.08,VWS V14.01,2013-03-18 18:05:00,
2013-03-18 11:10:00,47.3,38.0,30.16,NW,311,2.0,8.0,70,0.00,,---,0.08,VWS V14.01,2013-03-18 18:10:00,
2013-03-18 11:15:00,47.9,39.3,30.16,West,276,1.0,8.0,72,0.00,,---,0.08,VWS V14.01,2013-03-18 18:15:00,
2013-03-18 11:20:00,48.7,39.4,30.16,West,278,3.0,8.0,70,0.00,,---,0.08,VWS V14.01,2013-03-18 18:20:00,
2013-03-18 11:25:00,48.9,38.8,30.17,NW,321,2.0,8.0,68,0.00,,---,0.08,VWS V14.01,2013-03-18 18:25:00,
2013-03-18 11:30:00,48.8,37.6,30.17,NW,314,3.0,8.0,65,0.00,,---,0.08,VWS V14.01,2013-03-18 18:30:00,
2013-03-18 11:35:00,47.8,36.6,30.17,West,270,0.0,10.0,65,0.00,,---,0.08,VWS V14.01,2013-03-18 18:35:00,
2013-03-18 11:40:00,48.0,37.2,30.17,WNW,293,1.0,10.0,66,0.00,,---,0.08,VWS V14.01,2013-03-18 18:40:00,
2013-03-18 11:45:00,47.8,36.2,30.17,NW,306,2.0,10.0,64,0.00,,---,0.08,VWS V14.01,2013-03-18 18:45:00,
2013-03-18 11:50:00,47.7,37.3,30.17,West,266,7.0,10.0,67,0.00,,---,0.08,VWS V14.01,2013-03-18 18:50:00,
2013-03-18 11:55:00,47.4,36.6,30.17,NW,308,2.0,10.0,66,0.00,,---,0.08,VWS V14.01,2013-03-18 18:55:00,
2013-03-18 12:00:00,47.7,36.9,30.17,West,278,3.0,10.0,66,0.00,,---,0.08,VWS V14.01,2013-03-18 19:00:00,
2013-03-18 12:05:00,47.4,36.6,30.17,WNW,297,1.0,8.0,66,0.00,,---,0.08,VWS V14.01,2013-03-18 19:05:00,
2013-03-18 12:10:00,47.6,37.6,30.17,WNW,295,3.0,8.0,68,0.00,,---,0.08,VWS V14.01,2013-03-18 19:10:00,
2013-03-18 12:15:00,47.5,36.3,30.18,West,265,5.0,8.0,65,0.00,,---,0.08,VWS V14.01,2013-03-18 19:15:00,
2013-03-18 12:20:00,47.2,36.0,30.18,West,270,2.0,8.0,65,0.00,,---,0.08,VWS V14.01,2013-03-18 19:20:00,
2013-03-18 12:25:00,47.1,36.3,30.18,WSW,246,3.0,8.0,66,0.00,,---,0.08,VWS V14.01,2013-03-18 19:25:00,
2013-03-18 12:30:00,47.1,36.0,30.18,WSW,255,0.0,8.0,65,0.00,,---,0.08,VWS V14.01,2013-03-18 19:30:00,
2013-03-18 12:35:00,47.0,36.2,30.18,WNW,301,2.0,8.0,66,0.00,,---,0.08,VWS V14.01,2013-03-18 19:35:00,
2013-03-18 12:40:00,46.9,35.8,30.18,WNW,302,0.0,9.0,65,0.00,,---,0.08,VWS V14.01,2013-03-18 19:40:00,
2013-03-18 12:45:00,46.9,36.2,30.18,WNW,290,2.0,9.0,66,0.00,,---,0.08,VWS V14.01,2013-03-18 19:45:00,
2013-03-18 12:50:00,47.0,36.6,30.18,WNW,294,1.0,9.0,67,0.00,,---,0.08,VWS V14.01,2013-03-18 19:50:00,
2013-03-18 12:55:00,47.2,36.8,30.19,NW,326,3.0,9.0,67,0.00,,---,0.08,VWS V14.01,2013-03-18 19:55:00,
2013-03-18 13:00:00,47.2,36.4,30.18,WNW,293,0.0,9.0,66,0.00,,---,0.08,VWS V14.01,2013-03-18 20:00:00,
2013-03-18 13:05:00,47.2,36.4,30.19,West,260,0.0,9.0,66,0.00,,---,0.08,VWS V14.01,2013-03-18 20:05:00,
2013-03-18 13:10:00,47.5,38.2,30.19,NW,324,0.0,9.0,70,0.00,,---,0.08,VWS V14.01,2013-03-18 20:10:00,
2013-03-18 13:15:00,47.7,36.5,30.19,WNW,284,0.0,9.0,65,0.00,,---,0.08,VWS V14.01,2013-03-18 20:15:00,
2013-03-18 13:20:00,47.6,36.0,30.19,WNW,287,3.0,9.0,64,0.00,,---,0.08,VWS V14.01,2013-03-18 20:20:00,
2013-03-18 13:25:00,47.3,36.5,30.19,West,276,0.0,9.0,66,0.00,,---,0.08,VWS V14.01,2013-03-18 20:25:00,
2013-03-18 13:30:00,47.3,36.5,30.19,WNW,289,0.0,9.0,66,0.00,,---,0.08,VWS V14.01,2013-03-18 20:30:00,
2013-03-18 13:35:00,47.6,36.4,30.19,WNW,293,1.0,9.0,65,0.00,,---,0.08,VWS V14.01,2013-03-18 20:35:00,
2013-03-18 13:40:00,47.5,35.1,30.19,NNW,330,2.0,9.0,62,0.00,,---,0.08,VWS V14.01,2013-03-18 20:40:00,
2013-03-18 13:45:00,47.2,35.7,30.19,NW,305,1.0,9.0,64,0.00,,---,0.08,VWS V14.01,2013-03-18 20:45:00,
2013-03-18 13:50:00,47.2,35.7,30.19,NW,314,2.0,9.0,64,0.00,,---,0.08,VWS V14.01,2013-03-18 20:50:00,
2013-03-18 13:55:00,47.2,35.7,30.19,WSW,249,0.0,9.0,64,0.00,,---,0.08,VWS V14.01,2013-03-18 20:55:00,
2013-03-18 14:00:00,47.3,36.2,30.20,NW,324,0.0,9.0,65,0.00,,---,0.08,VWS V14.01,2013-03-18 21:00:00,
2013-03-18 14:05:00,47.3,35.0,30.19,West,269,0.0,4.0,62,0.00,,---,0.08,VWS V14.01,2013-03-18 21:05:00,
2013-03-18 14:10:00,47.3,33.3,30.20,WNW,287,2.0,4.0,58,0.00,,---,0.08,VWS V14.01,2013-03-18 21:10:00,
2013-03-18 14:15:00,47.2,33.2,30.20,West,280,1.0,6.0,58,0.00,,---,0.08,VWS V14.01,2013-03-18 21:15:00,
2013-03-18 14:20:00,47.2,31.9,30.20,WNW,302,5.0,8.0,55,0.00,,---,0.08,VWS V14.01,2013-03-18 21:20:00,
2013-03-18 14:25:00,47.3,33.7,30.20,WNW,289,1.0,8.0,59,0.00,,---,0.08,VWS V14.01,2013-03-18 21:25:00,
2013-03-18 14:30:00,47.4,32.5,30.20,WNW,297,1.0,8.0,56,0.00,,---,0.08,VWS V14.01,2013-03-18 21:30:00,
2013-03-18 14:35:00,47.5,33.5,30.20,West,272,4.0,8.0,58,0.00,,---,0.08,VWS V14.01,2013-03-18 21:35:00,
2013-03-18 14:40:00,47.5,33.9,30.20,WNW,301,1.0,8.0,59,0.00,,---,0.08,VWS V14.01,2013-03-18 21:40:00,
2013-03-18 14:45:00,47.7,34.5,30.20,WNW,297,1.0,8.0,60,0.00,,---,0.08,VWS V14.01,2013-03-18 21:45:00,
2013-03-18 14:50:00,47.7,34.9,30.20,West,281,1.0,10.0,61,0.00,,---,0.08,VWS V14.01,2013-03-18 21:50:00,
2013-03-18 14:55:00,47.9,34.7,30.20,NW,306,1.0,10.0,60,0.00,,---,0.08,VWS V14.01,2013-03-18 21:55:00,
2013-03-18 15:00:00,48.1,34.9,30.20,West,276,0.0,10.0,60,0.00,,---,0.08,VWS V14.01,2013-03-18 22:00:00,
2013-03-18 15:05:00,48.1,34.5,30.20,WNW,286,0.0,10.0,59,0.00,,---,0.08,VWS V14.01,2013-03-18 22:05:00,
2013-03-18 15:10:00,48.0,34.8,30.20,NW,310,2.0,10.0,60,0.00,,---,0.08,VWS V14.01,2013-03-18 22:10:00,
2013-03-18 15:15:00,47.9,34.7,30.20,WNW,297,2.0,10.0,60,0.00,,---,0.08,VWS V14.01,2013-03-18 22:15:00,
2013-03-18 15:20:00,47.8,34.2,30.20,NW,304,0.0,10.0,59,0.00,,---,0.08,VWS V14.01,2013-03-18 22:20:00,
2013-03-18 15:25:00,47.8,34.6,30.20,West,272,2.0,10.0,60,0.00,,---,0.08,VWS V14.01,2013-03-18 22:25:00,
2013-03-18 15:30:00,47.9,35.1,30.20,WNW,297,4.0,10.0,61,0.00,,---,0.08,VWS V14.01,2013-03-18 22:30:00,
2013-03-18 15:35:00,47.8,35.0,30.20,NW,318,1.0,10.0,61,0.00,,---,0.08,VWS V14.01,2013-03-18 22:35:00,
2013-03-18 15:40:00,47.7,34.1,30.20,WNW,295,0.0,10.0,59,0.00,,---,0.08,VWS V14.01,2013-03-18 22:40:00,
2013-03-18 15:45:00,47.5,33.9,30.20,WNW,301,0.0,10.0,59,0.00,,---,0.08,VWS V14.01,2013-03-18 22:45:00,
2013-03-18 15:50:00,47.3,33.3,30.20,WNW,295,1.0,10.0,58,0.00,,---,0.08,VWS V14.01,2013-03-18 22:50:00,
2013-03-18 15:55:00,47.1,33.9,30.21,NNW,332,2.0,10.0,60,0.00,,---,0.08,VWS V14.01,2013-03-18 22:55:00,
2013-03-18 16:00:00,47.1,34.8,30.21,WNW,303,0.0,10.0,62,0.00,,---,0.08,VWS V14.01,2013-03-18 23:00:00,
2013-03-18 16:05:00,47.0,35.1,30.21,WNW,282,0.0,4.0,63,0.00,,---,0.08,VWS V14.01,2013-03-18 23:05:00,
2013-03-18 16:10:00,47.0,35.5,30.21,NNW,340,2.0,4.0,64,0.00,,---,0.08,VWS V14.01,2013-03-18 23:10:00,
2013-03-18 16:15:00,47.0,35.5,30.22,NW,313,1.0,4.0,64,0.00,,---,0.08,VWS V14.01,2013-03-18 23:15:00,
2013-03-18 16:20:00,46.9,35.0,30.22,WNW,302,1.0,5.0,63,0.00,,---,0.08,VWS V14.01,2013-03-18 23:20:00,
2013-03-18 16:25:00,46.9,35.0,30.22,NNW,333,0.0,5.0,63,0.00,,---,0.08,VWS V14.01,2013-03-18 23:25:00,
2013-03-18 16:30:00,46.9,35.0,30.21,West,269,0.0,5.0,63,0.00,,---,0.08,VWS V14.01,2013-03-18 23:30:00,
2013-03-18 16:35:00,47.1,35.2,30.22,West,259,0.0,5.0,63,0.00,,---,0.08,VWS V14.01,2013-03-18 23:35:00,
2013-03-18 16:40:00,47.2,35.3,30.22,West,274,1.0,5.0,63,0.00,,---,0.08,VWS V14.01,2013-03-18 23:40:00,
2013-03-18 16:45:00,47.2,34.5,30.21,West,264,0.0,5.0,61,0.00,,---,0.08,VWS V14.01,2013-03-18 23:45:00,
2013-03-18 16:50:00,47.4,35.0,30.21,West,276,1.0,5.0,62,0.00,,---,0.08,VWS V14.01,2013-03-18 23:50:00,
2013-03-18 16:55:00,47.5,35.1,30.21,WNW,284,0.0,5.0,62,0.00,,---,0.08,VWS V14.01,2013-03-18 23:55:00,
2013-03-18 17:00:00,47.4,35.0,30.22,West,267,0.0,5.0,62,0.00,,---,0.08,VWS V14.01,2013-03-19 00:00:00,
2013-03-18 17:05:00,47.2,34.9,30.22,West,274,0.0,5.0,62,0.00,,---,0.08,VWS V14.01,2013-03-19 00:05:00,
2013-03-18 17:10:00,47.0,35.1,30.22,West,276,0.0,5.0,63,0.00,,---,0.08,VWS V14.01,2013-03-19 00:10:00,
2013-03-18 17:15:00,47.0,35.1,30.21,WNW,288,1.0,5.0,63,0.00,,---,0.08,VWS V14.01,2013-03-19 00:15:00,
2013-03-18 17:20:00,46.9,35.0,30.22,West,274,3.0,5.0,63,0.00,,---,0.08,VWS V14.01,2013-03-19 00:20:00,
2013-03-18 17:25:00,46.8,34.5,30.21,WNW,283,0.0,5.0,62,0.00,,---,0.08,VWS V14.01,2013-03-19 00:25:00,
2013-03-18 17:30:00,46.9,35.0,30.21,West,281,0.0,5.0,63,0.00,,---,0.08,VWS V14.01,2013-03-19 00:30:00,
2013-03-18 17:35:00,46.9,34.6,30.21,WNW,289,0.0,5.0,62,0.00,,---,0.08,VWS V14.01,2013-03-19 00:35:00,
2013-03-18 17:40:00,47.0,35.1,30.22,NW,322,1.0,5.0,63,0.00,,---,0.08,VWS V14.01,2013-03-19 00:40:00,
2013-03-18 17:45:00,47.0,35.1,30.21,West,276,1.0,5.0,63,0.00,,---,0.08,VWS V14.01,2013-03-19 00:45:00,
2013-03-18 17:50:00,47.0,35.1,30.22,West,270,0.0,5.0,63,0.00,,---,0.08,VWS V14.01,2013-03-19 00:50:00,
2013-03-18 17:55:00,47.1,34.8,30.22,WNW,283,0.0,5.0,62,0.00,,---,0.08,VWS V14.01,2013-03-19 00:55:00,
2013-03-18 18:00:00,47.2,35.3,30.22,WSW,255,2.0,5.0,63,0.00,,---,0.08,VWS V14.01,2013-03-19 01:00:00,
2013-03-18 18:05:00,47.1,35.6,30.22,West,281,1.0,3.0,64,0.00,,---,0.08,VWS V14.01,2013-03-19 01:05:00,
2013-03-18 18:10:00,47.0,35.5,30.21,West,272,1.0,3.0,64,0.00,,---,0.08,VWS V14.01,2013-03-19 01:10:00,
2013-03-18 18:15:00,46.9,35.8,30.21,WSW,255,0.0,3.0,65,0.00,,---,0.08,VWS V14.01,2013-03-19 01:15:00,
2013-03-18 18:20:00,46.8,35.7,30.21,NW,314,2.0,3.0,65,0.00,,---,0.08,VWS V14.01,2013-03-19 01:20:00,
2013-03-18 18:25:00,46.5,35.0,30.21,West,281,0.0,3.0,64,0.00,,---,0.08,VWS V14.01,2013-03-19 01:25:00,
2013-03-18 18:30:00,46.2,35.1,30.21,West,276,1.0,3.0,65,0.00,,---,0.08,VWS V14.01,2013-03-19 01:30:00,
2013-03-18 18:35:00,46.0,34.5,30.22,West,271,0.0,3.0,64,0.00,,---,0.08,VWS V14.01,2013-03-19 01:35:00,
2013-03-18 18:40:00,45.9,34.4,30.22,WNW,283,1.0,3.0,64,0.00,,---,0.08,VWS V14.01,2013-03-19 01:40:00,
2013-03-18 18:45:00,45.7,34.6,30.22,West,278,0.0,3.0,65,0.00,,---,0.08,VWS V14.01,2013-03-19 01:45:00,
2013-03-18 18:50:00,45.6,34.9,30.22,NW,306,0.0,3.0,66,0.00,,---,0.08,VWS V14.01,2013-03-19 01:50:00,
2013-03-18 18:55:00,45.4,34.7,30.21,WNW,284,0.0,4.0,66,0.00,,---,0.08,VWS V14.01,2013-03-19 01:55:00,
2013-03-18 19:00:00,45.2,34.9,30.21,West,263,0.0,4.0,67,0.00,,---,0.08,VWS V14.01,2013-03-19 02:00:00,
2013-03-18 19:05:00,44.9,35.0,30.21,West,277,0.0,4.0,68,0.00,,---,0.08,VWS V14.01,2013-03-19 02:05:00,
2013-03-18 19:10:00,44.6,35.1,30.22,West,280,0.0,4.0,69,0.00,,---,0.08,VWS V14.01,2013-03-19 02:10:00,
2013-03-18 19:15:00,44.4,35.2,30.22,West,269,0.0,4.0,70,0.00,,---,0.08,VWS V14.01,2013-03-19 02:15:00,
2013-03-18 19:20:00,44.2,35.0,30.22,West,271,0.0,4.0,70,0.00,,---,0.08,VWS V14.01,2013-03-19 02:20:00,
2013-03-18 19:25:00,44.0,34.9,30.22,WNW,284,1.0,4.0,70,0.00,,---,0.08,VWS V14.01,2013-03-19 02:25:00,
2013-03-18 19:30:00,43.9,35.1,30.22,WNW,293,1.0,4.0,71,0.00,,---,0.08,VWS V14.01,2013-03-19 02:30:00,
2013-03-18 19:35:00,43.7,34.6,30.22,WNW,287,1.0,4.0,70,0.00,,---,0.08,VWS V14.01,2013-03-19 02:35:00,
2013-03-18 19:40:00,43.7,34.9,30.22,West,281,0.0,4.0,71,0.00,,---,0.08,VWS V14.01,2013-03-19 02:40:00,
2013-03-18 19:45:00,43.5,34.7,30.22,West,264,0.0,4.0,71,0.00,,---,0.08,VWS V14.01,2013-03-19 02:45:00,
2013-03-18 19:50:00,43.5,35.1,30.22,WNW,290,0.0,4.0,72,0.00,,---,0.08,VWS V14.01,2013-03-19 02:50:00,
2013-03-18 19:55:00,43.4,35.0,30.22,West,281,0.0,4.0,72,0.00,,---,0.08,VWS V14.01,2013-03-19 02:55:00,
2013-03-18 20:00:00,43.3,34.9,30.23,West,274,0.0,4.0,72,0.00,,---,0.08,VWS V14.01,2013-03-19 03:00:00,
2013-03-18 20:05:00,43.3,35.2,30.23,West,274,1.0,1.0,73,0.00,,---,0.08,VWS V14.01,2013-03-19 03:05:00,
2013-03-18 20:10:00,43.2,35.1,30.23,West,276,0.0,1.0,73,0.00,,---,0.08,VWS V14.01,2013-03-19 03:10:00,
2013-03-18 20:15:00,43.1,35.0,30.23,West,281,1.0,3.0,73,0.00,,---,0.08,VWS V14.01,2013-03-19 03:15:00,
2013-03-18 20:20:00,43.3,34.9,30.23,West,281,0.0,3.0,72,0.00,,---,0.08,VWS V14.01,2013-03-19 03:20:00,
2013-03-18 20:25:00,43.3,34.9,30.23,West,267,0.0,3.0,72,0.00,,---,0.08,VWS V14.01,2013-03-19 03:25:00,
2013-03-18 20:30:00,43.2,34.8,30.23,West,277,0.0,3.0,72,0.00,,---,0.08,VWS V14.01,2013-03-19 03:30:00,
2013-03-18 20:35:00,43.1,34.7,30.23,West,278,0.0,3.0,72,0.00,,---,0.08,VWS V14.01,2013-03-19 03:35:00,
2013-03-18 20:40:00,42.9,34.5,30.23,West,278,0.0,3.0,72,0.00,,---,0.08,VWS V14.01,2013-03-19 03:40:00,
2013-03-18 20:45:00,42.7,34.7,30.23,West,278,0.0,3.0,73,0.00,,---,0.08,VWS V14.01,2013-03-19 03:45:00,
2013-03-18 20:50:00,42.7,34.7,30.23,West,278,0.0,3.0,73,0.00,,---,0.08,VWS V14.01,2013-03-19 03:50:00,
2013-03-18 20:55:00,42.6,34.6,30.23,West,278,0.0,3.0,73,0.00,,---,0.08,VWS V14.01,2013-03-19 03:55:00,
2013-03-18 21:00:00,42.5,34.8,30.23,West,278,0.0,3.0,74,0.00,,---,0.08,VWS V14.01,2013-03-19 04:00:00,
2013-03-18 21:01:00,42.5,34.8,30.24,West,278,0.0,3.0,74,0.00,,---,0.08,VWS V14.01,2013-03-19 04:01:00,
2013-03-18 21:07:00,42.2,35.5,30.24,West,278,0.0,3.0,77,0.00,,---,0.08,VWS V14.01,2013-03-19 04:07:00,
2013-03-18 21:11:00,41.9,35.9,30.24,West,278,0.0,3.0,79,0.00,,---,0.08,VWS V14.01,2013-03-19 04:11:00,
2013-03-18 21:17:00,41.6,35.9,30.24,West,278,0.0,3.0,80,0.00,,---,0.08,VWS V14.01,2013-03-19 04:17:00,
2013-03-18 21:22:00,41.1,35.1,30.24,West,278,0.0,3.0,79,0.00,,---,0.08,VWS V14.01,2013-03-19 04:22:00,
2013-03-18 21:27:00,40.7,35.0,30.24,West,278,0.0,3.0,80,0.00,,---,0.08,VWS V14.01,2013-03-19 04:27:00,
2013-03-18 21:32:00,40.3,34.6,30.24,West,278,0.0,3.0,80,0.00,,---,0.08,VWS V14.01,2013-03-19 04:32:00,
2013-03-18 21:37:00,40.0,34.3,30.24,West,278,0.0,3.0,80,0.00,,---,0.08,VWS V14.01,2013-03-19 04:37:00,
2013-03-18 21:42:00,39.6,34.6,30.24,West,278,0.0,3.0,82,0.00,,---,0.08,VWS V14.01,2013-03-19 04:42:00,
2013-03-18 21:47:00,39.3,34.3,30.24,West,278,0.0,3.0,82,0.00,,---,0.08,VWS V14.01,2013-03-19 04:47:00,
2013-03-18 21:52:00,39.1,34.4,30.24,West,278,0.0,3.0,83,0.00,,---,0.08,VWS V14.01,2013-03-19 04:52:00,
2013-03-18 21:57:00,38.9,34.5,30.24,West,278,0.0,3.0,84,0.00,,---,0.08,VWS V14.01,2013-03-19 04:57:00,
2013-03-18 22:02:00,38.7,34.6,30.24,West,278,0.0,0.0,85,0.00,,---,0.08,VWS V14.01,2013-03-19 05:02:00,
2013-03-18 22:07:00,38.3,34.2,30.24,West,278,0.0,0.0,85,0.00,,---,0.08,VWS V14.01,2013-03-19 05:07:00,
2013-03-18 22:12:00,38.1,34.3,30.25,West,278,0.0,1.0,86,0.00,,---,0.08,VWS V14.01,2013-03-19 05:12:00,
2013-03-18 22:17:00,37.9,34.1,30.24,West,278,0.0,1.0,86,0.00,,---,0.08,VWS V14.01,2013-03-19 05:17:00,
2013-03-18 22:22:00,37.6,33.8,30.24,West,278,0.0,1.0,86,0.00,,---,0.08,VWS V14.01,2013-03-19 05:22:00,
2013-03-18 22:27:00,37.5,33.7,30.25,West,278,0.0,1.0,86,0.00,,---,0.08,VWS V14.01,2013-03-19 05:27:00,
2013-03-18 22:32:00,37.3,33.8,30.25,West,278,0.0,1.0,87,0.00,,---,0.08,VWS V14.01,2013-03-19 05:32:00,
2013-03-18 22:37:00,37.1,33.6,30.25,West,278,0.0,1.0,87,0.00,,---,0.08,VWS V14.01,2013-03-19 05:37:00,
2013-03-18 22:42:00,37.0,33.5,30.25,West,278,0.0,1.0,87,0.00,,---,0.08,VWS V14.01,2013-03-19 05:42:00,
2013-03-18 22:47:00,36.9,33.7,30.25,West,278,0.0,1.0,88,0.00,,---,0.08,VWS V14.01,2013-03-19 05:47:00,
2013-03-18 22:52:00,36.8,33.6,30.25,West,278,1.0,1.0,88,0.00,,---,0.08,VWS V14.01,2013-03-19 05:52:00,
2013-03-18 22:57:00,36.7,33.5,30.25,West,278,0.0,1.0,88,0.00,,---,0.08,VWS V14.01,2013-03-19 05:57:00,
2013-03-18 23:00:00,38.7,34.3,30.24,West,278,0.0,3.0,84,0.00,,---,0.08,VWS V14.01,2013-03-19 06:00:00,
2013-03-18 23:02:00,36.6,33.4,30.25,West,278,0.0,1.0,88,0.00,,---,0.08,VWS V14.01,2013-03-19 06:02:00,
2013-03-18 23:07:00,36.5,33.6,30.25,West,278,0.0,1.0,89,0.00,,---,0.08,VWS V14.01,2013-03-19 06:07:00,
2013-03-18 23:12:00,36.4,33.5,30.25,West,278,0.0,1.0,89,0.00,,---,0.08,VWS V14.01,2013-03-19 06:12:00,
2013-03-18 23:17:00,36.4,33.5,30.25,West,278,0.0,1.0,89,0.00,,---,0.08,VWS V14.01,2013-03-19 06:17:00,
2013-03-18 23:22:00,36.3,33.4,30.25,West,278,0.0,1.0,89,0.00,,---,0.08,VWS V14.01,2013-03-19 06:22:00,
2013-03-18 23:27:00,36.1,33.2,30.25,West,278,0.0,1.0,89,0.00,,---,0.08,VWS V14.01,2013-03-19 06:27:00,
2013-03-18 23:32:00,36.0,33.1,30.25,West,278,0.0,1.0,89,0.00,,---,0.08,VWS V14.01,2013-03-19 06:32:00,
2013-03-18 23:37:00,35.9,33.0,30.24,West,278,0.0,1.0,89,0.00,,---,0.08,VWS V14.01,2013-03-19 06:37:00,
2013-03-18 23:42:00,35.7,32.8,30.24,West,278,0.0,1.0,89,0.00,,---,0.08,VWS V14.01,2013-03-19 06:42:00,
2013-03-18 23:47:00,35.6,32.7,30.24,West,278,0.0,1.0,89,0.00,,---,0.08,VWS V14.01,2013-03-19 06:47:00,
2013-03-18 23:52:00,35.4,32.8,30.24,West,278,0.0,1.0,90,0.00,,---,0.08,VWS V14.01,2013-03-19 06:52:00,
2013-03-18 23:57:00,35.3,32.7,30.24,West,278,0.0,1.0,90,0.00,,---,0.08,VWS V14.01,2013-03-19 06:57:00,